This is the latest recevied weather packets stored in our database for station/object VR2R-13. If no packets are shown the sender has not sent any weather packets the latest 1 day(s).
| Time | Temp. | Humidity | Pressure | Rain* | Wind** | Luminosity | Snow |
|---|---|---|---|---|---|---|---|
| 1778026309 | 16.11° C | 98% | 914.7 hPa | 0 mm | 0 m/s | - | - |
| 1778026067 | 16.11° C | 98% | 914.6 hPa | 0 mm | 0 m/s | - | - |
| 1778025949 | 16.67° C | 98% | 914.6 hPa | 0 mm | 0.89 m/s, 54° | - | - |
| 1778025767 | 16.67° C | 98% | 914.6 hPa | 0 mm | 1.79 m/s, 20° | - | - |
| 1778025589 | 16.67° C | 98% | 914.5 hPa | 0 mm | 2.24 m/s, 61° | - | - |
| 1778025467 | 16.67° C | 98% | 914.6 hPa | 0 mm | 0.89 m/s, 54° | - | - |
| 1778025229 | 16.11° C | 98% | 914.6 hPa | 0 mm | 0 m/s | - | - |
| 1778024869 | 16.11° C | 98% | 914.6 hPa | 0 mm | 1.34 m/s, 68° | - | - |
| 1778024868 | 16.11° C | 98% | 914.5 hPa | 0 mm | 1.34 m/s, 73° | - | - |
| 1778024509 | 16.11° C | 97% | 914.6 hPa | 0 mm | 3.58 m/s, 83° | - | - |
| 1778024149 | 16.11° C | 97% | 914.4 hPa | 0 mm | 2.24 m/s, 63° | - | - |
| 1778023789 | 16.11° C | 98% | 914.4 hPa | 0 mm | 0.45 m/s, 64° | - | - |
| 1778023667 | 16.11° C | 97% | 914.4 hPa | 0 mm | 3.58 m/s, 78° | - | - |
| 1778023428 | 16.11° C | 97% | 914.4 hPa | 0 mm | 3.58 m/s, 72° | - | - |
| 1778023367 | 16.11° C | 97% | 914.4 hPa | 0 mm | 3.58 m/s, 75° | - | - |
| 1778023069 | 16.11° C | 97% | 914.3 hPa | 0 mm | 3.58 m/s, 71° | - | - |
| 1778023067 | 16.11° C | 97% | 914.4 hPa | 0 mm | 3.58 m/s, 70° | - | - |
| 1778022889 | 16.11° C | 97% | 914.3 hPa | 0 mm | 3.13 m/s, 76° | - | - |
| 1778022888 | 16.11° C | 97% | 914.3 hPa | 0 mm | 2.68 m/s, 54° | - | - |
| 1778022767 | 16.11° C | 97% | 914.4 hPa | 0 mm | 3.13 m/s, 82° | - | - |
| 1778022708 | 16.11° C | 97% | 914.3 hPa | 0 mm | 3.13 m/s, 76° | - | - |
| 1778022467 | 16.11° C | 97% | 914.3 hPa | 0 mm | 3.13 m/s, 57° | - | - |
| 1778022348 | 16.11° C | 97% | 914.3 hPa | 0 mm | 2.68 m/s, 54° | - | - |
| 1778022167 | 16.11° C | 97% | 914.3 hPa | 0 mm | 2.24 m/s, 73° | - | - |
| 1778021988 | 16.11° C | 97% | 914.2 hPa | 0 mm | 3.13 m/s, 94° | - | - |
* Rain latest hour (hover to see other rain measurements)
** Current wind speed in m/s (hover to see current wind gust speed)